User: anonymous   Login
Location: Pine Mountain Observatory
(43.7910°N, 120.9377°W)
Time: 19:36:12
(UTC-07:00)
Language:

Meteor 2-19 Rocket - Orbit

View from above orbital plane
View from above orbital plane
View from above satellite
View from above satellite

Ground track
Ground track

The orbit data is extracted from the following two-line orbital elements,

1 20671U 90057B   16236.52767605  .00000018  00000-0  23629-5 0  9999
2 20671  82.5439 248.7085 0016553  74.8237  89.6465 13.84602798321871
Epoch (UTC): 23 August 2016 12:39:51
Eccentricity: 0.0016553
inclination: 82.5439°
perigee height: 935 km
apogee height: 960 km
right ascension of ascending node: 248.7085°
argument of perigee: 74.8237°
revolutions per day: 13.84602798
mean anomaly at epoch: 89.6465°
orbit number at epoch: 32187

The dashed part of the orbit path shows where the satellite is in the earth's shadow,  

DLR